格洛纳斯-783 COSMOS 2374 [GLONASS]

导读 | 星芒AI

COSMOS 2374 是一颗俄罗斯 GLONASS 卫星,属于全球导航卫星系统(GLONASS)的一部分,用于提供高精度的全球定位和导航服务。该卫星由俄罗斯航天局发射,运行在中地球轨道,与其他 GLONASS 卫星协同工作,支持民用和军用用户。GLONASS 系统与 GPS 等其他卫星导航系统兼容,提升全球定位的可靠性和准确性。COSMOS 2374 在提升俄罗斯导航能力方面发挥着重要作用。

基本信息
目录编号:
26566
目录名称:
COSMOS 2374 (GLONASS)
国际标识:
2000-063C
轨道中心:
EARTH
卫星名称:
格洛纳斯-783
卫星全名:
格洛纳斯-783 COSMOS 2374 [GLONASS]
卫星状态:
在轨 (已飞行9150 天)
发射日期:
2000-10-13 UTC
国别 :
俄罗斯(独联体) (CIS)
星等 :
--
轨道信息
数据来源 国际轨道数据 AOE轨道数据
星历时间 2025-10-27T19:17:43+0800
4天前
查看轨道信息
2025-10-29T03:00:00+0800
3天前
查看轨道信息
半长轴 25508.208km 25508.185km
偏心率 0.0078342 0.0078335
轨道倾角 65.312° 65.312°
近地点辐角 210.758° 210.822°
升交点赤经 321.510° 321.465°
平近点角 329.775° 263.143°
近地点 18930.236km 18930.231km
远地点 19329.91km 19329.869km
周期 675.740分钟 675.739分钟
每日圈数 2.130997 2.131
详细信息
平衡模式:
三轴稳定
覆盖范围:
全球
运营商:
列舍特涅夫卫星信息系统
运营商所在国:
俄罗斯
制造商(研发单位):
列舍特涅夫卫星信息系统
制造商所在国:
俄罗斯
使用方式:
暂无
卫星简介
格洛纳斯(GLONASS )是苏联/俄罗斯研制卫星导航系统。标准配置为24颗卫星,其中18颗卫星就能保证该系统为俄罗斯境内用户提供全部服务。该卫星已退役。
2D轨道图
3D轨道图
轨道高度分析图
轨道倾角分析图
轨道综合分析图
查看轨道综合分析图